Regional Weather Roundup
Issued by NWS

Home | Current Version | Previous Version | Graphics & Text | Print | Product List | Glossary On
Versions: 1 2 3 4 5 6 7 8 9 10 11 12 13 14 15 16 17 18 19 20 21 22 23 24 25 26 27 28 29 30 31 32 33 34 35 36 37 38 39 40 41 42 43 44 45 46 47 48 49 50
000
ASUS45 KBOI 020710
RWRID

IDAHO REGIONAL WEATHER ROUNDUP
NATIONAL WEATHER SERVICE BOISE ID
100 AM MDT MON MAY 02 2016

NOTE: "FAIR" INDICATES FEW OR NO CLOUDS BELOW 12000 FEET
WITH NO SIGNIFICANT WEATHER AND/OR OBSTRUCTIONS TO VISIBILITY

IDZ012-014-020800-
SOUTHWEST IDAHO


CITY           SKY/WX    TMP DP  RH WIND       PRES   REMARKS
BOISE          PTCLDY    54  33  45 E6        30.08S
CALDWELL       CLOUDY    52  42  69 N3        30.08R
MOUNTAIN HOME  CLEAR     45  34  63 E5        30.09R
$$

IDZ016-017-020800-
SOUTHCENTRAL IDAHO


CITY           SKY/WX    TMP DP  RH WIND       PRES   REMARKS
BURLEY         CLEAR     45  36  70 CALM      30.12R
JEROME         CLEAR     42  33  70 N9        30.13R
TWIN FALLS     CLEAR     43  31  62 S10       30.12R
$$

IDZ019>023-020800-
SOUTHEAST IDAHO


CITY           SKY/WX    TMP DP  RH WIND       PRES   REMARKS
IDAHO FALLS    CLEAR     45  24  43 CALM      30.17R
POCATELLO      CLEAR     43  28  55 NW6       30.16R
REXBURG        CLEAR     46  23  40 S7        30.17S
$$

IDZ006-010-011-018-031-032-020800-
CENTRAL IDAHO MOUNTAINS


CITY           SKY/WX    TMP DP  RH WIND       PRES   REMARKS
MCCALL         CLEAR     41  35  79 SW6       30.11S
HAILEY         CLEAR     41  32  70 NW10      30.18S
STANLEY          N/A     35  25  66 CALM      30.20R
SALMON         CLEAR     39  28  65 CALM      30.16R
CHALLIS        CLEAR     45  26  47 S3        30.16R
$$

IDZ002-004-006-007-026-020800-
NORTHERN IDAHO


CITY           SKY/WX    TMP DP  RH WIND       PRES   REMARKS
LEWISTON       CLEAR     56  46  69 CALM      30.04S
LOWELL           N/A     50  46  86 N5        30.11R
COEUR D`ALENE  CLEAR     48  39  71 E7        30.05F
MULLAN PASS    CLEAR     45  30  55 SE8       30.19S
$$



USA.gov is the U.S. government's official web portal to all federal, state and local government web resources and services.